DMSP 5D-2 F13 DEB, 40489

Orbit data source: Space-Track

DMSP 5D-2 F13 DEB, 40489 is space debris in SSO originally from a launch on Fri, 24 Mar 1995 UTC launched from the Air Force Western Test Range (AFWTR). Debris objects in space refer to the collection of defunct objects orbiting the Earth. Examples of debris include non-operational satellites, rocket bodies, and fragments generated from explosions, collisions, or faulty payload assembly.

Loading next visibility...
Identifier
40489, 1995-015CC
Orbit
SSO
Country
Flag of USUS
Related business
Manufacturer
Unknown
Mission
Spacecraft
Bus & Motor
Unknown
Mass
Unknown
Launch date (UTC)
1995-03-24 (31 years ago)
Launch vehicle
Unknown
Launch site
Air Force Western Test Range (AFWTR)
Object type
Payload
Rocket body
Debris
Shape & HBR
Unknown shape, 0.1 m
Radar Cross Section
Small (<0.1 m²)

Expand to show TLE details & history
Last TLE update: 17 hours ago

TLE from 17 hours ago
0 DMSP 5D-2 F13 DEB
1 40489U 95015CC  25338.67144163  .00038907  00000-0  10366-1 0  9992
2 40489  98.7342 308.3389 0031429 178.7724 181.3550 14.47995547553088
Epoch: 2025-12-04T16:06Z
TLE epoch observation values (Epoch: 2025-12-04T16:06:52.556Z)
Latitude
-0.00009°
Longitude
-7.10461°
Altitude
757.5 km
Speed
7.464 km/s
True Right ascension
20h 33m 21s
True Declination
0° 00' 00"
Sunlit
Object was in daylight at epoch
Visualization orbit readout
Latitude
Unknown
Longitude
Unknown
Altitude
Unknown
Speed
Unknown
Apparent Right ascension
Unknown
Apparent Declination
Unknown
Sunlit
N/A
Visualization observer readout
Local Sidereal Time
07:25:17
Azimuth
Unknown
Elevation
Unknown
Doppler factor
Unknown
Orbital elements
Apogee altitude
751.663 km
Perigee altitude
706.987 km
Semi-major axis
7,107.462 km
Eccentricity
0.00314
Inclination
98.7342°
RAAN
308.3389°
Arg. of periapsis
178.7724°
True anomaly
181.34652°
Mean anomaly
181.355°
Eccentric anomaly
181.35076°
Mean motion
3.62219 °/min
Orbital period
99.39 mins
BSTAR
0.010366
Loading maneuver chart data...
Computing Atmospheric mass density...

Documentation

Showing up to 5 results
|